User: anonymous   Login
Location: Steilacoom
(47.1700°N, 122.5700°W)
Time: 08:37:57
(UTC-08:00)
Language:

STARS - Orbit

View from above orbital plane
View from above orbital plane
View from above satellite
View from above satellite

Ground track
Ground track

The orbit data is extracted from the following two-line orbital elements,

1 33498U 09002G   20024.56015281  .00000148  00000-0  27491-4 0  9994
2 33498  98.2822 245.5682 0010874 177.2565 182.8707 14.79081258592504
Epoch (UTC): 24 January 2020 13:26:37
Eccentricity: 0.0010874
inclination: 98.2822°
perigee height: 624 km
apogee height: 640 km
right ascension of ascending node: 245.5682°
argument of perigee: 177.2565°
revolutions per day: 14.79081258
mean anomaly at epoch: 182.8707°
orbit number at epoch: 59250

The dashed part of the orbit path shows where the satellite is in the earth's shadow,  

DLR